Location: �perlecques
(50.8057°N, 2.1521°E)
Time: 00:02:13
(UTC+00:00)

Envisat - Visible Passes

Search period start: 07 December 2022 00:00
Search period end: 17 December 2022 00:00
Orbit: 763 x 765 km, 98.2° (Epoch: 06 December)

Date Brightness Start Highest point End Pass type
(mag) Time Alt. Az. Time Alt. Az. Time Alt. Az.
07 Dec 5.3 03:31:47 10° NNE 03:33:13 18° NE 03:33:13 18° NE visible
07 Dec 4.2 05:10:51 10° N 05:13:24 26° NNW 05:13:24 26° NNW visible
07 Dec 5.8 16:32:20 10° SW 16:35:38 17° W 16:38:58 10° NW visible
08 Dec 6.0 02:55:34 10° NE 02:55:40 10° NE 02:55:40 10° NE visible
08 Dec 4.4 04:33:36 10° N 04:35:50 26° N 04:35:50 26° N visible
08 Dec 4.7 06:14:14 10° NNW 06:16:00 14° NW 06:16:00 14° NW visible
09 Dec 5.0 03:56:37 10° NNE 03:58:16 21° NNE 03:58:16 21° NNE visible
09 Dec 4.4 05:36:14 10° N 05:38:26 20° NNW 05:38:26 20° NNW visible
09 Dec 6.3 17:00:20 10° W 17:01:04 10° W 17:01:48 10° WNW visible
10 Dec 5.6 03:20:00 10° NNE 03:20:43 13° NE 03:20:43 13° NE visible
10 Dec 4.4 04:58:46 10° N 05:00:53 24° N 05:00:53 24° N visible
10 Dec 5.7 16:19:41 10° SW 16:23:31 21° W 16:27:23 10° NW visible
11 Dec 4.8 04:21:36 10° NNE 04:23:20 22° NNE 04:23:20 22° NNE visible
11 Dec 4.7 06:01:51 10° NNW 06:03:31 15° NNW 06:03:31 15° NNW visible
12 Dec 5.3 03:44:43 10° NNE 03:45:48 16° NNE 03:45:48 16° NNE visible
12 Dec 4.5 05:24:05 10° N 05:25:59 20° NNW 05:25:59 20° NNW visible
12 Dec 5.9 16:46:31 10° WSW 16:48:54 13° W 16:51:18 10° WNW visible
13 Dec 5.9 03:08:15 10° NE 03:08:16 10° NE 03:08:16 10° NE visible
13 Dec 4.7 04:46:43 10° N 04:48:26 21° N 04:48:26 21° N visible
13 Dec 4.9 06:28:06 10° NNW 06:28:37 11° NW 06:28:37 11° NW visible
14 Dec 5.1 04:09:38 10° NNE 04:10:55 18° NNE 04:10:55 18° NNE visible
14 Dec 4.7 05:49:35 10° N 05:51:06 16° NNW 05:51:06 16° NNW visible
15 Dec 5.6 03:32:51 10° NNE 03:33:24 13° NNE 03:33:24 13° NNE visible
15 Dec 4.7 05:11:58 10° N 05:13:34 19° N 05:13:34 19° N visible
15 Dec 5.8 16:33:34 10° SW 16:36:46 17° W 16:39:59 10° NW visible
16 Dec 4.9 04:34:42 10° N 04:36:04 19° N 04:36:04 19° N visible
16 Dec 4.9 06:15:25 10° NNW 06:16:14 12° NNW 06:16:14 12° NNW visible
